Time,TemperatureF,DewpointF,PressureIn,WindDirection,WindDirectionDegrees,WindSpeedMPH,WindSpeedGustMPH,Humidity,HourlyPrecipIn,Conditions,Clouds,dailyrainin,SolarRadiationWatts/m^2,SoftwareType,DateUTC
2013-01-27 00:10:00,21.0,17.7,30.41,West,276,2.0,2.0,87,0.00,,,0.00,0,Wunderground v.1.15,2013-01-27 05:10:00,
2013-01-27 00:20:00,20.7,17.7,30.41,West,262,1.0,1.0,88,0.00,,,0.00,0,Wunderground v.1.15,2013-01-27 05:20:00,
2013-01-27 00:30:00,20.6,17.6,30.41,West,281,2.0,2.0,88,0.00,,,0.00,0,Wunderground v.1.15,2013-01-27 05:30:00,
2013-01-27 00:40:00,20.6,17.3,30.41,NW,304,1.0,4.0,87,0.00,,,0.00,0,Wunderground v.1.15,2013-01-27 05:40:00,
2013-01-27 00:50:00,20.7,17.2,30.41,West,275,3.0,3.0,86,0.00,,,0.00,0,Wunderground v.1.15,2013-01-27 05:50:00,
2013-01-27 01:00:00,20.7,16.9,30.42,NW,311,2.0,4.0,85,0.00,,,0.00,0,Wunderground v.1.15,2013-01-27 06:00:00,
2013-01-27 01:10:00,20.6,16.8,30.42,West,269,2.0,6.0,85,0.00,,,0.00,0,Wunderground v.1.15,2013-01-27 06:10:00,
2013-01-27 01:20:00,20.6,16.8,30.42,WNW,296,4.0,4.0,85,0.00,,,0.00,0,Wunderground v.1.15,2013-01-27 06:20:00,
2013-01-27 01:30:00,20.5,16.7,30.43,NW,309,3.0,4.0,85,0.00,,,0.00,0,Wunderground v.1.15,2013-01-27 06:30:00,
2013-01-27 01:40:00,20.3,16.5,30.43,WSW,250,1.0,1.0,85,0.00,,,0.00,0,Wunderground v.1.15,2013-01-27 06:40:00,
2013-01-27 01:50:00,20.2,16.4,30.44,WNW,297,1.0,5.0,85,0.00,,,0.00,0,Wunderground v.1.15,2013-01-27 06:50:00,
2013-01-27 02:00:00,20.3,16.2,30.44,West,277,2.0,3.0,84,0.00,,,0.00,0,Wunderground v.1.15,2013-01-27 07:00:00,
2013-01-27 02:20:00,20.5,16.4,30.45,NW,307,2.0,2.0,84,0.00,,,0.00,0,Wunderground v.1.15,2013-01-27 07:20:00,
2013-01-27 02:30:00,20.5,16.4,30.45,West,266,2.0,2.0,84,0.00,,,0.00,0,Wunderground v.1.15,2013-01-27 07:30:00,
2013-01-27 02:40:00,20.4,16.3,30.46,WNW,290,0.0,1.0,84,0.00,,,0.00,0,Wunderground v.1.15,2013-01-27 07:40:00,
2013-01-27 02:50:00,20.3,16.5,30.46,WNW,298,0.0,0.0,85,0.00,,,0.00,0,Wunderground v.1.15,2013-01-27 07:50:00,
2013-01-27 03:00:00,20.2,16.4,30.46,WNW,298,0.0,0.0,85,0.00,,,0.00,0,Wunderground v.1.15,2013-01-27 08:00:00,
2013-01-27 03:10:00,20.3,16.8,30.46,WNW,298,0.0,0.0,86,0.00,,,0.00,0,Wunderground v.1.15,2013-01-27 08:10:00,
2013-01-27 03:20:00,20.3,16.8,30.47,WNW,296,0.0,0.0,86,0.00,,,0.00,0,Wunderground v.1.15,2013-01-27 08:20:00,
2013-01-27 03:30:00,20.4,16.9,30.47,West,265,0.0,1.0,86,0.00,,,0.00,0,Wunderground v.1.15,2013-01-27 08:30:00,
2013-01-27 03:40:00,20.6,17.3,30.47,WNW,297,0.0,0.0,87,0.00,,,0.00,0,Wunderground v.1.15,2013-01-27 08:40:00,
2013-01-27 03:50:00,20.7,17.4,30.47,WNW,297,0.0,0.0,87,0.00,,,0.00,0,Wunderground v.1.15,2013-01-27 08:50:00,
2013-01-27 04:00:00,20.7,17.4,30.47,WNW,297,0.0,0.0,87,0.00,,,0.00,0,Wunderground v.1.15,2013-01-27 09:00:00,
2013-01-27 04:10:00,20.6,17.3,30.48,WNW,297,0.0,0.0,87,0.00,,,0.00,0,Wunderground v.1.15,2013-01-27 09:10:00,
2013-01-27 04:20:00,20.6,17.6,30.48,WNW,297,0.0,0.0,88,0.00,,,0.00,0,Wunderground v.1.15,2013-01-27 09:20:00,
2013-01-27 04:30:00,20.6,17.6,30.48,WNW,297,0.0,0.0,88,0.00,,,0.00,0,Wunderground v.1.15,2013-01-27 09:30:00,
2013-01-27 04:40:00,20.4,17.1,30.48,WNW,297,0.0,0.0,87,0.00,,,0.00,0,Wunderground v.1.15,2013-01-27 09:40:00,
2013-01-27 04:50:00,20.7,17.4,30.48,NNW,348,0.0,1.0,87,0.00,,,0.00,0,Wunderground v.1.15,2013-01-27 09:50:00,
2013-01-27 05:00:00,21.0,17.7,30.48,North,350,0.0,0.0,87,0.00,,,0.00,0,Wunderground v.1.15,2013-01-27 10:00:00,
2013-01-27 05:10:00,21.1,17.8,30.48,North,350,0.0,0.0,87,0.00,,,0.00,0,Wunderground v.1.15,2013-01-27 10:10:00,
2013-01-27 05:20:00,21.3,18.0,30.48,NNE,18,1.0,2.0,87,0.00,,,0.00,0,Wunderground v.1.15,2013-01-27 10:20:00,
2013-01-27 05:30:00,21.5,18.0,30.49,North,5,1.0,2.0,86,0.00,,,0.00,0,Wunderground v.1.15,2013-01-27 10:30:00,
2013-01-27 05:40:00,21.7,17.9,30.49,North,349,2.0,2.0,85,0.00,,,0.00,0,Wunderground v.1.15,2013-01-27 10:40:00,
2013-01-27 05:50:00,21.7,17.9,30.50,North,350,0.0,0.0,85,0.00,,,0.00,0,Wunderground v.1.15,2013-01-27 10:50:00,
2013-01-27 06:00:00,21.8,18.0,30.50,North,355,1.0,2.0,85,0.00,,,0.00,0,Wunderground v.1.15,2013-01-27 11:00:00,
2013-01-27 06:10:00,21.7,17.9,30.50,NNE,24,2.0,3.0,85,0.00,,,0.00,0,Wunderground v.1.15,2013-01-27 11:10:00,
2013-01-27 06:20:00,21.7,17.9,30.50,NNE,13,4.0,4.0,85,0.00,,,0.00,0,Wunderground v.1.15,2013-01-27 11:20:00,
2013-01-27 06:30:00,21.6,17.8,30.51,NE,50,3.0,4.0,85,0.00,,,0.00,0,Wunderground v.1.15,2013-01-27 11:30:00,
2013-01-27 06:40:00,21.3,17.2,30.51,NNE,13,3.0,3.0,84,0.00,,,0.00,0,Wunderground v.1.15,2013-01-27 11:40:00,
2013-01-27 06:50:00,21.2,17.1,30.51,NNW,332,2.0,2.0,84,0.00,,,0.00,0,Wunderground v.1.15,2013-01-27 11:50:00,
2013-01-27 07:00:00,21.1,17.0,30.52,NNE,13,1.0,1.0,84,0.00,,,0.00,0,Wunderground v.1.15,2013-01-27 12:00:00,
2013-01-27 07:10:00,20.8,16.7,30.52,NNE,25,2.0,2.0,84,0.00,,,0.00,0,Wunderground v.1.15,2013-01-27 12:10:00,
2013-01-27 07:20:00,20.6,16.3,30.53,NNE,24,3.0,3.0,83,0.00,,,0.00,0,Wunderground v.1.15,2013-01-27 12:20:00,
2013-01-27 07:30:00,20.1,16.0,30.53,NNE,24,1.0,1.0,84,0.00,,,0.00,5,Wunderground v.1.15,2013-01-27 12:30:00,
2013-01-27 07:40:00,20.0,15.7,30.53,North,5,1.0,2.0,83,0.00,,,0.00,12,Wunderground v.1.15,2013-01-27 12:40:00,
2013-01-27 07:50:00,19.9,15.6,30.53,North,360,1.0,1.0,83,0.00,,,0.00,14,Wunderground v.1.15,2013-01-27 12:50:00,
2013-01-27 08:00:00,19.7,15.1,30.54,North,5,1.0,1.0,82,0.00,,,0.00,23,Wunderground v.1.15,2013-01-27 13:00:00,
2013-01-27 08:10:00,19.1,14.5,30.54,NNE,27,1.0,1.0,82,0.00,,,0.00,51,Wunderground v.1.15,2013-01-27 13:10:00,
2013-01-27 08:20:00,18.9,14.9,30.55,NNE,27,0.0,0.0,84,0.00,,,0.00,104,Wunderground v.1.15,2013-01-27 13:20:00,
2013-01-27 08:30:00,20.1,15.5,30.55,NNE,27,0.0,0.0,82,0.00,,,0.00,130,Wunderground v.1.15,2013-01-27 13:30:00,
2013-01-27 08:40:00,20.3,15.1,30.55,NNE,26,1.0,2.0,80,0.00,,,0.00,169,Wunderground v.1.15,2013-01-27 13:40:00,
2013-01-27 08:50:00,20.6,15.1,30.55,NE,42,4.0,4.0,79,0.00,,,0.00,207,Wunderground v.1.15,2013-01-27 13:50:00,
2013-01-27 09:00:00,20.8,15.3,30.55,NNE,14,3.0,3.0,79,0.00,,,0.00,244,Wunderground v.1.15,2013-01-27 14:00:00,
2013-01-27 09:10:00,21.2,15.4,30.56,NNE,32,3.0,3.0,78,0.00,,,0.00,281,Wunderground v.1.15,2013-01-27 14:10:00,
2013-01-27 09:20:00,21.2,15.4,30.56,NE,42,2.0,3.0,78,0.00,,,0.00,318,Wunderground v.1.15,2013-01-27 14:20:00,
2013-01-27 09:30:00,21.7,15.6,30.56,NE,49,1.0,1.0,77,0.00,,,0.00,352,Wunderground v.1.15,2013-01-27 14:30:00,
2013-01-27 09:40:00,22.4,16.3,30.56,ENE,59,1.0,1.0,77,0.00,,,0.00,399,Wunderground v.1.15,2013-01-27 14:40:00,
2013-01-27 09:50:00,22.5,16.1,30.56,NNW,327,0.0,1.0,76,0.00,,,0.00,425,Wunderground v.1.15,2013-01-27 14:50:00,
2013-01-27 10:00:00,21.8,15.7,30.56,North,350,1.0,1.0,77,0.00,,,0.00,155,Wunderground v.1.15,2013-01-27 15:00:00,
2013-01-27 10:10:00,22.5,16.4,30.57,West,274,1.0,1.0,77,0.00,,,0.00,649,Wunderground v.1.15,2013-01-27 15:10:00,
2013-01-27 10:20:00,22.6,16.2,30.57,WSW,257,2.0,3.0,76,0.00,,,0.00,213,Wunderground v.1.15,2013-01-27 15:20:00,
2013-01-27 10:30:00,23.2,16.4,30.56,NW,321,2.0,2.0,75,0.00,,,0.00,568,Wunderground v.1.15,2013-01-27 15:30:00,
2013-01-27 10:40:00,22.9,16.2,30.57,NE,39,2.0,2.0,75,0.00,,,0.00,628,Wunderground v.1.15,2013-01-27 15:40:00,
2013-01-27 10:50:00,23.0,16.3,30.57,NNE,27,1.0,2.0,75,0.00,,,0.00,612,Wunderground v.1.15,2013-01-27 15:50:00,
2013-01-27 11:00:00,23.5,16.4,30.57,NE,54,1.0,1.0,74,0.00,,,0.00,656,Wunderground v.1.15,2013-01-27 16:00:00,
2013-01-27 11:10:00,23.3,16.2,30.57,SE,135,0.0,0.0,74,0.00,,,0.00,659,Wunderground v.1.15,2013-01-27 16:10:00,
2013-01-27 11:20:00,24.0,17.2,30.57,South,181,0.0,0.0,75,0.00,,,0.00,693,Wunderground v.1.15,2013-01-27 16:20:00,
2013-01-27 11:30:00,24.8,16.7,30.56,WNW,293,3.0,6.0,71,0.00,,,0.00,668,Wunderground v.1.15,2013-01-27 16:30:00,
2013-01-27 11:40:00,24.9,16.5,30.56,West,277,2.0,2.0,70,0.00,,,0.00,761,Wunderground v.1.15,2013-01-27 16:40:00,
2013-01-27 11:50:00,24.2,16.1,30.56,SW,221,3.0,4.0,71,0.00,,,0.00,339,Wunderground v.1.15,2013-01-27 16:50:00,
2013-01-27 12:00:00,24.2,16.5,30.55,West,268,2.0,3.0,72,0.00,,,0.00,158,Wunderground v.1.15,2013-01-27 17:00:00,
2013-01-27 12:10:00,24.8,15.4,30.54,SSW,205,2.0,6.0,67,0.00,,,0.00,195,Wunderground v.1.15,2013-01-27 17:10:00,
2013-01-27 12:20:00,25.8,16.3,30.54,West,281,2.0,3.0,67,0.00,,,0.00,696,Wunderground v.1.15,2013-01-27 17:20:00,
2013-01-27 12:30:00,26.0,16.9,30.53,NW,311,1.0,2.0,68,0.00,,,0.00,656,Wunderground v.1.15,2013-01-27 17:30:00,
2013-01-27 12:40:00,26.0,16.5,30.53,SSW,199,1.0,6.0,67,0.00,,,0.00,647,Wunderground v.1.15,2013-01-27 17:40:00,
2013-01-27 12:50:00,25.5,15.7,30.53,South,190,5.0,5.0,66,0.00,,,0.00,610,Wunderground v.1.15,2013-01-27 17:50:00,
2013-01-27 13:00:00,25.4,15.6,30.52,SSW,201,2.0,2.0,66,0.00,,,0.00,318,Wunderground v.1.15,2013-01-27 18:00:00,
2013-01-27 13:10:00,25.3,15.9,30.52,West,264,1.0,1.0,67,0.00,,,0.00,568,Wunderground v.1.15,2013-01-27 18:10:00,
2013-01-27 13:20:00,24.6,14.9,30.51,West,269,0.0,0.0,66,0.00,,,0.00,179,Wunderground v.1.15,2013-01-27 18:20:00,
2013-01-27 13:30:00,25.4,15.6,30.52,NW,315,2.0,2.0,66,0.00,,,0.00,445,Wunderground v.1.15,2013-01-27 18:30:00,
2013-01-27 13:40:00,26.7,16.1,30.53,NW,311,3.0,3.0,64,0.00,,,0.00,654,Wunderground v.1.15,2013-01-27 18:40:00,
2013-01-27 13:50:00,26.5,16.0,30.52,NW,304,1.0,1.0,64,0.00,,,0.00,615,Wunderground v.1.15,2013-01-27 18:50:00,
2013-01-27 14:00:00,27.9,17.3,30.53,WNW,293,0.0,0.0,64,0.00,,,0.00,698,Wunderground v.1.15,2013-01-27 19:00:00,
2013-01-27 14:10:00,27.3,16.7,30.53,NNE,18,0.0,3.0,64,0.00,,,0.00,287,Wunderground v.1.15,2013-01-27 19:10:00,
2013-01-27 14:20:00,26.6,16.1,30.52,WNW,302,2.0,2.0,64,0.00,,,0.00,489,Wunderground v.1.15,2013-01-27 19:20:00,
2013-01-27 14:30:00,26.7,16.1,30.52,SSW,209,0.0,3.0,64,0.00,,,0.00,220,Wunderground v.1.15,2013-01-27 19:30:00,
2013-01-27 14:40:00,26.6,15.7,30.52,West,263,2.0,2.0,63,0.00,,,0.00,448,Wunderground v.1.15,2013-01-27 19:40:00,
2013-01-27 14:50:00,26.7,15.4,30.52,NE,36,0.0,0.0,62,0.00,,,0.00,415,Wunderground v.1.15,2013-01-27 19:50:00,
2013-01-27 15:00:00,27.3,15.6,30.52,North,355,1.0,1.0,61,0.00,,,0.00,241,Wunderground v.1.15,2013-01-27 20:00:00,
2013-01-27 15:10:00,27.2,15.9,30.53,North,355,0.0,0.0,62,0.00,,,0.00,311,Wunderground v.1.15,2013-01-27 20:10:00,
2013-01-27 15:20:00,26.7,15.4,30.53,SW,232,0.0,0.0,62,0.00,,,0.00,135,Wunderground v.1.15,2013-01-27 20:20:00,
2013-01-27 15:30:00,26.3,15.4,30.53,West,261,0.0,0.0,63,0.00,,,0.00,148,Wunderground v.1.15,2013-01-27 20:30:00,
2013-01-27 15:40:00,26.6,15.7,30.52,WSW,242,1.0,1.0,63,0.00,,,0.00,211,Wunderground v.1.15,2013-01-27 20:40:00,
2013-01-27 15:50:00,26.9,15.6,30.52,WSW,242,0.0,0.0,62,0.00,,,0.00,160,Wunderground v.1.15,2013-01-27 20:50:00,
2013-01-27 16:00:00,26.8,16.2,30.52,SE,136,0.0,0.0,64,0.00,,,0.00,120,Wunderground v.1.15,2013-01-27 21:00:00,
2013-01-27 16:10:00,26.1,15.9,30.51,SE,136,2.0,2.0,65,0.00,,,0.00,118,Wunderground v.1.15,2013-01-27 21:10:00,
2013-01-27 16:20:00,25.7,15.6,30.51,SE,134,2.0,2.0,65,0.00,,,0.00,62,Wunderground v.1.15,2013-01-27 21:20:00,
2013-01-27 16:30:00,25.4,15.6,30.52,ESE,117,1.0,1.0,66,0.00,,,0.00,51,Wunderground v.1.15,2013-01-27 21:30:00,
2013-01-27 16:40:00,25.6,15.5,30.52,ESE,117,0.0,0.0,65,0.00,,,0.00,40,Wunderground v.1.15,2013-01-27 21:40:00,
2013-01-27 16:50:00,24.2,15.2,30.52,East,79,1.0,1.0,68,0.00,,,0.00,21,Wunderground v.1.15,2013-01-27 21:50:00,
2013-01-27 17:10:00,23.5,15.1,30.51,NE,56,0.0,3.0,70,0.00,,,0.00,5,Wunderground v.1.15,2013-01-27 22:10:00,
2013-01-27 17:20:00,22.6,14.9,30.51,ENE,59,3.0,3.0,72,0.00,,,0.00,0,Wunderground v.1.15,2013-01-27 22:20:00,
2013-01-27 17:30:00,22.5,15.1,30.51,ENE,78,3.0,3.0,73,0.00,,,0.00,0,Wunderground v.1.15,2013-01-27 22:30:00,
2013-01-27 18:10:00,21.7,14.7,30.48,East,98,2.0,3.0,74,0.00,,,0.00,0,Wunderground v.1.15,2013-01-27 23:10:00,
2013-01-27 18:20:00,21.7,14.7,30.48,SE,124,2.0,3.0,74,0.00,,,0.00,0,Wunderground v.1.15,2013-01-27 23:20:00,
2013-01-27 18:30:00,21.9,14.9,30.48,SE,128,3.0,3.0,74,0.00,,,0.00,0,Wunderground v.1.15,2013-01-27 23:30:00,
2013-01-27 18:40:00,22.0,14.7,30.48,East,100,2.0,3.0,73,0.00,,,0.00,0,Wunderground v.1.15,2013-01-27 23:40:00,
2013-01-27 18:50:00,21.1,14.1,30.47,ESE,114,2.0,2.0,74,0.00,,,0.00,0,Wunderground v.1.15,2013-01-27 23:50:00,
2013-01-27 19:00:00,21.1,14.1,30.47,ESE,119,2.0,3.0,74,0.00,,,0.00,0,Wunderground v.1.15,2013-01-28 00:00:00,
2013-01-27 19:10:00,20.5,13.8,30.47,SE,130,3.0,3.0,75,0.00,,,0.00,0,Wunderground v.1.15,2013-01-28 00:10:00,
2013-01-27 19:20:00,20.7,14.0,30.46,SE,130,4.0,6.0,75,0.00,,,0.00,0,Wunderground v.1.15,2013-01-28 00:20:00,
2013-01-27 19:30:00,20.9,14.2,30.47,SE,130,4.0,4.0,75,0.00,,,0.00,0,Wunderground v.1.15,2013-01-28 00:30:00,
2013-01-27 19:40:00,20.5,13.8,30.48,SE,141,3.0,3.0,75,0.00,,,0.00,0,Wunderground v.1.15,2013-01-28 00:40:00,
2013-01-27 19:50:00,20.3,13.6,30.48,SE,130,3.0,3.0,75,0.00,,,0.00,0,Wunderground v.1.15,2013-01-28 00:50:00,
2013-01-27 20:00:00,20.0,13.6,30.47,SE,130,2.0,3.0,76,0.00,,,0.00,0,Wunderground v.1.15,2013-01-28 01:00:00,
2013-01-27 20:10:00,19.0,13.0,30.47,ESE,123,2.0,2.0,77,0.00,,,0.00,0,Wunderground v.1.15,2013-01-28 01:10:00,
2013-01-27 20:20:00,19.4,13.7,30.47,SE,125,2.0,2.0,78,0.00,,,0.00,0,Wunderground v.1.15,2013-01-28 01:20:00,
2013-01-27 20:30:00,19.6,13.6,30.47,SE,143,3.0,3.0,77,0.00,,,0.00,0,Wunderground v.1.15,2013-01-28 01:30:00,
2013-01-27 20:40:00,18.7,13.0,30.47,SE,138,2.0,2.0,78,0.00,,,0.00,0,Wunderground v.1.15,2013-01-28 01:40:00,
2013-01-27 20:50:00,19.3,13.6,30.46,SE,139,2.0,2.0,78,0.00,,,0.00,0,Wunderground v.1.15,2013-01-28 01:50:00,
2013-01-27 21:00:00,18.9,13.5,30.45,SE,134,2.0,3.0,79,0.00,,,0.00,0,Wunderground v.1.15,2013-01-28 02:00:00,
2013-01-27 21:10:00,18.9,13.7,30.45,SE,142,2.0,4.0,80,0.00,,,0.00,0,Wunderground v.1.15,2013-01-28 02:10:00,
2013-01-27 21:20:00,19.7,14.5,30.45,SE,141,4.0,4.0,80,0.00,,,0.00,0,Wunderground v.1.15,2013-01-28 02:20:00,
2013-01-27 21:30:00,19.8,14.3,30.44,SE,129,3.0,3.0,79,0.00,,,0.00,0,Wunderground v.1.15,2013-01-28 02:30:00,
2013-01-27 21:40:00,20.3,14.8,30.43,SE,124,3.0,3.0,79,0.00,,,0.00,0,Wunderground v.1.15,2013-01-28 02:40:00,
2013-01-27 21:50:00,20.7,15.2,30.43,SE,126,3.0,3.0,79,0.00,,,0.00,0,Wunderground v.1.15,2013-01-28 02:50:00,
2013-01-27 22:00:00,20.7,14.9,30.43,SE,138,4.0,4.0,78,0.00,,,0.00,0,Wunderground v.1.15,2013-01-28 03:00:00,
2013-01-27 22:10:00,20.3,14.5,30.42,SSE,148,4.0,6.0,78,0.00,,,0.00,0,Wunderground v.1.15,2013-01-28 03:10:00,
2013-01-27 22:20:00,20.2,14.7,30.42,SSE,150,5.0,5.0,79,0.00,,,0.00,0,Wunderground v.1.15,2013-01-28 03:20:00,
2013-01-27 22:30:00,20.4,14.9,30.42,ESE,122,4.0,4.0,79,0.00,,,0.00,0,Wunderground v.1.15,2013-01-28 03:30:00,
2013-01-27 22:40:00,20.6,15.1,30.42,SE,141,4.0,5.0,79,0.00,,,0.00,0,Wunderground v.1.15,2013-01-28 03:40:00,
2013-01-27 22:50:00,20.6,15.4,30.42,SE,134,4.0,5.0,80,0.00,,,0.00,0,Wunderground v.1.15,2013-01-28 03:50:00,
2013-01-27 23:00:00,20.8,15.6,30.42,SE,133,4.0,4.0,80,0.00,,,0.00,0,Wunderground v.1.15,2013-01-28 04:00:00,
2013-01-27 23:10:00,21.0,15.8,30.42,SSE,148,4.0,4.0,80,0.00,,,0.00,0,Wunderground v.1.15,2013-01-28 04:10:00,
2013-01-27 23:20:00,21.3,16.1,30.41,SE,144,5.0,5.0,80,0.00,,,0.00,0,Wunderground v.1.15,2013-01-28 04:20:00,
2013-01-27 23:30:00,21.5,16.6,30.41,SE,135,6.0,7.0,81,0.00,,,0.00,0,Wunderground v.1.15,2013-01-28 04:30:00,
2013-01-27 23:40:00,21.8,16.9,30.41,SE,146,5.0,5.0,81,0.00,,,0.00,0,Wunderground v.1.15,2013-01-28 04:40:00,
2013-01-27 23:50:00,22.0,17.3,30.41,South,171,4.0,4.0,82,0.00,,,0.00,0,Wunderground v.1.15,2013-01-28 04:50:00,